Tracking 18942 objects as of 18-Jan-2018
HD Live streaming from Space Station
objects crossing your sky now

CANX-1

Track CANX-1 now!
10-day predictions
CANX-1 is classified as:


NORAD ID: 27847
Int'l Code: 2003-031H
Perigee: 818.1 km
Apogee: 832.8 km
Inclination: 98.7 °
Period: 101.3 minutes
Semi major axis: 7196 km
RCS: 0.0073 m2 (small)
Launch date: June 30, 2003
Source: Canada (CA)
Launch site: PLESETSK MISSILE AND SPACE COMPLEX (PKMTR)
Uplink (MHz):
Downlink (MHz): 437.880
Beacon (MHz):
Mode: 1200bps AFSK
Call sign: VA3SFL
Status: Inactive

aabbcc
Your satellite tracking list
Your tracking list is empty




NASA's NSSDC Master Catalog

Two Line Element Set (TLE):
1 27847U 03031H   18017.99297779  .00000019  00000-0  28376-4 0  9991
2 27847  98.6837  27.4742 0010218  63.6811 296.5415 14.22092040754949
Source of the keplerian elements: AFSPC